Time,TemperatureF,DewpointF,PressureIn,WindDirection,WindDirectionDegrees,WindSpeedMPH,WindSpeedGustMPH,Humidity,HourlyPrecipIn,Conditions,Clouds,dailyrainin,SoftwareType,DateUTC
2013-05-18 08:52:00,66.0,66.0,29.98,North,-999,-999.0,-999.0,99,-99.99,,,-99.99,,2013-05-18 13:52:00,
2013-05-18 09:03:00,66.0,66.0,29.98,ESE,102,0.0,-999.0,99,-99.99,,,-99.99,,2013-05-18 14:03:00,
2013-05-18 09:12:00,66.0,66.0,29.98,ESE,102,0.0,-999.0,99,-99.99,,,-99.99,,2013-05-18 14:12:00,
2013-05-18 09:22:00,67.0,67.0,29.98,ESE,113,1.0,-999.0,99,-99.99,,,-99.99,,2013-05-18 14:22:00,
2013-05-18 09:32:00,67.0,67.0,29.98,East,79,0.0,-999.0,99,-99.99,,,-99.99,,2013-05-18 14:32:00,
2013-05-18 09:42:00,67.0,67.0,29.98,East,79,0.0,-999.0,99,-99.99,,,-99.99,,2013-05-18 14:42:00,
2013-05-18 09:54:00,68.0,68.0,29.99,East,79,0.0,-999.0,100,-99.99,,,-99.99,,2013-05-18 14:54:00,
2013-05-18 10:03:00,68.0,68.0,29.99,ESE,113,0.0,-999.0,99,-99.99,,,-99.99,,2013-05-18 15:03:00,
2013-05-18 10:13:00,68.0,68.0,29.99,ESE,113,0.0,-999.0,99,-99.99,,,-99.99,,2013-05-18 15:13:00,
2013-05-18 10:23:00,69.0,69.0,29.99,ESE,111,0.0,-999.0,100,-99.99,,,-99.99,,2013-05-18 15:23:00,
2013-05-18 10:33:00,70.0,70.0,29.98,ENE,64,0.0,-999.0,99,-99.99,,,-99.99,,2013-05-18 15:33:00,
2013-05-18 10:43:00,70.0,70.0,29.98,ENE,64,0.0,-999.0,99,-99.99,,,-99.99,,2013-05-18 15:43:00,
2013-05-18 10:53:00,72.0,70.0,29.98,ENE,58,0.0,-999.0,93,-99.99,,,-99.99,,2013-05-18 15:53:00,
2013-05-18 11:02:00,72.0,68.0,29.98,ENE,71,0.0,-999.0,87,-99.99,,,-99.99,,2013-05-18 16:02:00,
2013-05-18 11:13:00,72.0,68.0,29.98,ENE,71,0.0,-999.0,87,-99.99,,,-99.99,,2013-05-18 16:13:00,
2013-05-18 11:22:00,73.0,68.0,29.97,East,88,0.0,-999.0,83,-99.99,,,-99.99,,2013-05-18 16:22:00,
2013-05-18 11:33:00,74.0,68.0,29.97,ENE,65,0.0,-999.0,81,-99.99,,,-99.99,,2013-05-18 16:33:00,
2013-05-18 11:42:00,74.0,68.0,29.97,ENE,65,0.0,-999.0,81,-99.99,,,-99.99,,2013-05-18 16:42:00,
2013-05-18 11:52:00,75.0,68.0,29.97,NE,55,2.0,-999.0,80,-99.99,,,-99.99,,2013-05-18 16:52:00,
2013-05-18 12:02:00,75.0,68.0,29.97,East,98,2.0,-999.0,79,-99.99,,,-99.99,,2013-05-18 17:02:00,
2013-05-18 12:12:00,75.0,68.0,29.97,East,98,2.0,-999.0,79,-99.99,,,-99.99,,2013-05-18 17:12:00,
2013-05-18 12:22:00,76.0,67.0,29.96,SE,141,1.0,-999.0,74,-99.99,,,-99.99,,2013-05-18 17:22:00,
2013-05-18 12:32:00,77.0,68.0,29.96,ESE,111,1.0,-999.0,74,-99.99,,,-99.99,,2013-05-18 17:32:00,
2013-05-18 12:42:00,77.0,68.0,29.96,ESE,111,1.0,-999.0,74,-99.99,,,-99.99,,2013-05-18 17:42:00,
2013-05-18 12:52:00,78.0,68.0,29.96,South,169,0.0,-999.0,71,-99.99,,,-99.99,,2013-05-18 17:52:00,
2013-05-18 13:01:00,79.0,68.0,29.95,ESE,105,0.0,-999.0,70,-99.99,,,-99.99,,2013-05-18 18:01:00,
2013-05-18 13:12:00,79.0,68.0,29.95,ESE,105,0.0,-999.0,70,-99.99,,,-99.99,,2013-05-18 18:12:00,
2013-05-18 13:21:00,80.0,68.0,29.94,East,91,0.0,-999.0,68,-99.99,,,-99.99,,2013-05-18 18:21:00,
2013-05-18 13:32:00,80.0,69.0,29.94,ENE,74,2.0,-999.0,70,-99.99,,,-99.99,,2013-05-18 18:32:00,
2013-05-18 13:42:00,80.0,69.0,29.94,ENE,74,2.0,-999.0,70,-99.99,,,-99.99,,2013-05-18 18:42:00,
2013-05-18 13:52:00,80.0,68.0,29.94,East,84,2.0,-999.0,66,-99.99,,,-99.99,,2013-05-18 18:52:00,
2013-05-18 14:02:00,80.0,67.0,29.93,East,88,2.0,-999.0,65,-99.99,,,-99.99,,2013-05-18 19:02:00,
2013-05-18 14:11:00,80.0,67.0,29.93,East,88,2.0,-999.0,65,-99.99,,,-99.99,,2013-05-18 19:11:00,
2013-05-18 14:22:00,81.0,68.0,29.93,East,83,2.0,-999.0,64,-99.99,,,-99.99,,2013-05-18 19:22:00,
2013-05-18 14:32:00,82.0,68.0,29.92,SE,138,3.0,-999.0,62,-99.99,,,-99.99,,2013-05-18 19:32:00,
2013-05-18 14:42:00,82.0,68.0,29.92,SE,138,3.0,-999.0,62,-99.99,,,-99.99,,2013-05-18 19:42:00,
2013-05-18 14:52:00,82.0,68.0,29.92,ENE,74,3.0,-999.0,63,-99.99,,,-99.99,,2013-05-18 19:52:00,
2013-05-18 15:02:00,82.0,68.0,29.92,ENE,73,3.0,-999.0,62,-99.99,,,-99.99,,2013-05-18 20:02:00,
2013-05-18 15:11:00,82.0,68.0,29.92,ENE,73,3.0,-999.0,62,-99.99,,,-99.99,,2013-05-18 20:11:00,
2013-05-18 15:22:00,82.0,67.0,29.92,East,84,3.0,-999.0,61,-99.99,,,-99.99,,2013-05-18 20:22:00,
2013-05-18 15:32:00,83.0,68.0,29.92,ENE,77,2.0,-999.0,61,-99.99,,,-99.99,,2013-05-18 20:32:00,
2013-05-18 15:42:00,83.0,68.0,29.92,ENE,77,2.0,-999.0,61,-99.99,,,-99.99,,2013-05-18 20:42:00,
2013-05-18 15:52:00,83.0,69.0,29.91,SSE,159,1.0,-999.0,62,-99.99,,,-99.99,,2013-05-18 20:52:00,
2013-05-18 16:01:00,83.0,69.0,29.91,SE,132,0.0,-999.0,62,-99.99,,,-99.99,,2013-05-18 21:01:00,
2013-05-18 16:12:00,83.0,69.0,29.91,SE,132,0.0,-999.0,62,-99.99,,,-99.99,,2013-05-18 21:12:00,
2013-05-18 16:21:00,84.0,69.0,29.90,SE,137,1.0,-999.0,60,-99.99,,,-99.99,,2013-05-18 21:21:00,
2013-05-18 16:32:00,85.0,70.0,29.90,ESE,111,1.0,-999.0,60,-99.99,,,-99.99,,2013-05-18 21:32:00,
2013-05-18 16:43:00,85.0,70.0,29.90,ESE,111,1.0,-999.0,60,-99.99,,,-99.99,,2013-05-18 21:43:00,
2013-05-18 16:53:00,85.0,69.0,29.89,SSW,194,0.0,-999.0,59,-99.99,,,-99.99,,2013-05-18 21:53:00,
2013-05-18 17:03:00,85.0,69.0,29.89,East,97,1.0,-999.0,59,-99.99,,,-99.99,,2013-05-18 22:03:00,
2013-05-18 17:12:00,84.0,69.0,29.89,East,97,1.0,-999.0,61,-99.99,,,-99.99,,2013-05-18 22:12:00,
2013-05-18 17:23:00,84.0,69.0,29.89,East,97,1.0,-999.0,61,-99.99,,,-99.99,,2013-05-18 22:23:00,
2013-05-18 17:33:00,84.0,70.0,29.89,East,87,1.0,-999.0,62,-99.99,,,-99.99,,2013-05-18 22:33:00,
2013-05-18 17:42:00,84.0,70.0,29.89,East,86,0.0,-999.0,62,-99.99,,,-99.99,,2013-05-18 22:42:00,
2013-05-18 17:52:00,84.0,70.0,29.89,East,86,0.0,-999.0,62,-99.99,,,-99.99,,2013-05-18 22:52:00,
2013-05-18 18:01:00,84.0,70.0,29.89,East,86,1.0,-999.0,62,-99.99,,,-99.99,,2013-05-18 23:01:00,
2013-05-18 18:12:00,84.0,70.0,29.89,East,86,1.0,-999.0,62,-99.99,,,-99.99,,2013-05-18 23:12:00,
2013-05-18 18:22:00,84.0,70.0,29.89,ENE,72,0.0,-999.0,63,-99.99,,,-99.99,,2013-05-18 23:22:00,
2013-05-18 18:32:00,83.0,70.0,29.88,East,87,4.0,-999.0,64,-99.99,,,-99.99,,2013-05-18 23:32:00,
2013-05-18 18:41:00,83.0,70.0,29.88,East,87,4.0,-999.0,64,-99.99,,,-99.99,,2013-05-18 23:41:00,
2013-05-18 18:53:00,83.0,70.0,29.88,ENE,78,0.0,-999.0,65,-99.99,,,-99.99,,2013-05-18 23:53:00,
2013-05-18 19:01:00,82.0,69.0,29.88,East,88,0.0,-999.0,66,-99.99,,,-99.99,,2013-05-19 00:01:00,
2013-05-18 19:11:00,82.0,69.0,29.88,East,88,0.0,-999.0,66,-99.99,,,-99.99,,2013-05-19 00:11:00,
2013-05-18 19:21:00,82.0,69.0,29.88,East,81,0.0,-999.0,66,-99.99,,,-99.99,,2013-05-19 00:21:00,
2013-05-18 19:31:00,82.0,69.0,29.88,East,82,0.0,-999.0,66,-99.99,,,-99.99,,2013-05-19 00:31:00,
2013-05-18 19:41:00,82.0,69.0,29.88,East,82,0.0,-999.0,66,-99.99,,,-99.99,,2013-05-19 00:41:00,
2013-05-18 19:52:00,81.0,69.0,29.88,ENE,67,0.0,-999.0,67,-99.99,,,-99.99,,2013-05-19 00:52:00,
2013-05-18 20:01:00,81.0,69.0,29.88,North,-999,-999.0,-999.0,67,-99.99,,,-99.99,,2013-05-19 01:01:00,
2013-05-18 20:11:00,81.0,69.0,29.88,North,-999,-999.0,-999.0,67,-99.99,,,-99.99,,2013-05-19 01:11:00,